Theta_e
351 351 347 341 342 342 343 341 339 337 335 335 336 338 340 339 338 338 338 337 337 337 340 339 337 336 335 333 332 334 339 339
350 351 351 351 350 343 342 342 341 339 338 336 335 336 338 338 337 338 338 338 338 338 339 338 335 333 334 335 335 335 338 339
336 347 350 351 351 350 343 341 341 340 341 340 338 341 342 342 341 342 339 338 338 337 337 336 335 334 337 337 337 338 338 338
321 331 343 349 348 349 349 348 347 346 346 346 345 345 345 344 343 341 342 340 340 338 337 338 337 341 341 339 339 338 339 338
319 321 335 346 346 348 348 347 347 348 348 348 347 347 346 345 343 344 342 341 342 341 342 343 343 342 340 340 339 339 339 338
324 327 330 341 345 347 348 347 347 347 347 346 346 345 345 345 344 343 343 343 342 342 342 342 343 343 343 341 341 340 338 337
324 327 332 339 344 346 348 348 346 346 346 346 343 343 345 344 342 341 341 342 342 342 342 341 342 343 343 343 343 341 340 338
318 318 321 331 341 344 345 345 345 344 342 342 342 341 341 341 342 340 340 340 340 341 341 342 340 341 342 343 342 342 341 340
311 311 312 317 324 328 332 333 334 335 335 336 336 337 340 341 342 342 341 341 339 339 340 341 340 340 340 341 343 342 341 341
307 306 307 309 312 315 318 320 323 325 324 323 324 326 330 332 334 336 338 337 338 340 339 340 339 339 339 339 340 342 342 341
303 304 303 305 309 311 313 314 315 315 316 316 315 317 317 320 325 328 328 331 333 336 338 339 339 339 338 338 338 340 341 340
301 300 301 303 305 308 310 312 312 311 312 311 311 312 314 315 318 320 320 323 327 330 330 333 336 339 338 338 338 338 339 338
301 300 298 299 302 304 306 307 311 310 308 308 308 309 310 312 314 316 317 318 321 323 325 329 334 335 336 337 337 337 334 336
300 299 298 298 298 299 303 306 307 307 306 306 306 306 307 308 308 309 310 312 314 317 320 323 326 332 335 335 335 333 332 333
301 299 298 297 298 299 301 303 304 304 304 304 303 304 303 303 303 304 306 307 310 311 312 314 320 323 331 335 335 336 333 329
300 299 299 298 298 298 300 303 303 301 302 301 301 301 300 300 300 301 303 303 305 306 309 311 313 316 321 327 333 332 333 334
296 298 297 297 297 296 298 298 299 300 299 299 298 298 298 298 298 298 299 300 301 302 303 305 308 312 315 319 323 329 332 335
297 297 296 296 294 295 295 295 296 296 296 296 296 296 296 296 295 296 297 298 299 299 300 302 304 307 310 314 317 321 328 330
297 297 296 295 294 294 293 293 294 294 293 293 293 292 293 294 294 294 295 295 296 297 298 301 303 305 307 310 312 316 317 322
294 295 295 294 293 293 293 292 292 292 291 291 291 292 292 291 292 293 293 294 295 295 297 299 302 303 303 304 308 312 315 318
Wind_Speed
4 4 9 15 16 16 16 16 16 17 19 20 22 23 24 24 23 23 23 22 21 21 20 18 17 16 15 14 13 12 10 9
7 6 6 8 10 15 16 16 16 17 17 19 21 22 23 24 24 24 24 23 22 21 20 20 19 17 16 15 14 13 12 11
8 9 8 9 10 11 15 16 17 17 17 18 18 16 18 20 22 21 24 24 23 21 21 20 19 18 17 16 15 13 13 13
10 11 11 11 12 12 11 13 14 15 16 16 15 16 17 17 19 22 23 24 23 22 22 21 20 17 16 18 16 15 14 14
16 14 12 13 14 13 12 12 12 13 15 15 14 13 14 16 17 17 20 21 20 22 22 21 21 20 19 17 18 17 16 15
20 17 12 13 14 15 14 13 12 12 11 12 14 14 16 15 15 16 18 22 22 24 24 24 24 24 22 20 20 18 17 16
19 18 14 10 14 16 14 13 12 11 10 11 15 18 16 15 18 20 18 19 19 21 23 23 24 23 23 24 22 21 20 18
17 17 17 11 9 8 10 11 7 8 9 9 11 16 17 15 15 16 18 21 22 19 21 22 23 23 25 25 25 24 22 21
20 19 19 16 10 5 1 2 3 3 5 8 10 14 16 13 14 16 16 15 20 24 24 23 22 22 26 27 27 26 24 24
19 19 18 16 15 12 9 7 6 3 4 4 5 5 7 10 12 17 14 18 20 22 22 23 24 26 26 28 29 28 28 27
19 20 21 17 12 12 11 11 10 10 9 9 10 10 9 9 9 12 13 16 20 25 21 24 24 23 27 30 33 33 30 28
18 18 20 18 15 10 9 10 10 11 10 11 11 11 12 11 10 10 11 13 14 16 22 23 21 22 25 32 35 31 28 24
18 19 21 20 18 15 8 11 9 9 11 12 12 12 12 11 11 11 11 12 15 15 15 17 21 21 22 24 26 26 29 22
17 19 19 19 15 13 10 8 5 7 9 11 14 14 13 12 12 12 12 11 14 15 14 17 19 18 10 9 3 7 18 36
17 17 17 17 16 15 12 7 6 8 10 11 14 14 13 15 14 14 14 12 12 15 13 13 18 20 18 14 4 6 9 17
16 16 16 16 16 14 13 11 9 11 11 11 12 14 13 15 16 15 14 13 12 14 13 14 13 17 20 21 29 25 10 10
15 15 16 16 15 15 12 10 12 9 12 11 14 14 14 15 17 16 15 13 13 14 15 14 14 16 18 20 22 26 26 13
12 13 14 16 16 16 15 14 10 10 12 11 15 14 15 13 18 16 15 15 14 16 16 14 16 18 20 18 20 14 15 15
13 13 14 15 16 16 17 17 16 16 18 18 16 17 17 17 17 18 17 17 17 16 16 15 14 17 17 19 20 22 25 27
13 14 14 16 15 16 15 17 16 16 15 15 13 14 15 18 18 17 17 17 16 16 16 14 15 16 17 20 20 21 23 24
Wind_Direction
269 233 240 230 231 231 230 230 228 225 223 223 221 217 216 217 219 216 214 214 215 216 219 220 220 222 223 225 221 212 212 219
309 285 251 239 239 243 238 237 236 235 234 232 230 228 226 225 223 221 219 219 219 221 224 226 226 224 227 227 226 225 224 230
307 286 268 244 235 238 238 236 236 237 238 239 238 235 237 232 230 224 225 222 222 222 225 228 229 228 228 229 229 230 234 234
324 292 263 245 239 236 236 231 227 227 228 231 232 231 237 238 236 235 229 228 226 225 227 227 228 228 234 231 227 232 235 238
330 318 276 252 240 233 230 229 231 234 233 233 228 222 227 232 235 239 234 235 229 231 228 225 224 226 230 228 228 228 234 238
338 334 302 267 250 239 233 226 226 226 229 228 237 235 232 225 221 233 237 231 231 230 227 225 225 227 230 232 232 231 232 235
351 348 343 304 264 249 235 227 221 229 227 232 232 237 237 237 234 234 232 234 236 236 234 232 231 229 231 233 234 235 236 235
360 359 0 327 269 257 240 239 227 222 227 230 232 236 242 234 236 236 240 242 239 236 238 241 241 236 234 235 237 238 238 239
7 7 6 7 359 352 296 188 161 165 218 228 238 235 232 230 241 242 240 238 244 248 247 248 240 237 235 236 236 239 242 239
12 12 11 13 14 16 20 33 34 66 53 12 355 317 274 264 253 244 233 240 239 240 239 241 245 241 237 235 233 234 239 237
15 13 13 11 16 24 20 34 38 37 37 25 5 358 341 325 298 289 283 265 257 250 251 247 243 239 235 235 233 230 232 232
19 18 17 15 17 32 28 26 31 35 28 16 10 355 349 333 308 300 297 285 273 266 262 258 258 247 242 235 229 227 235 239
24 21 19 24 21 14 8 4 9 19 18 10 10 1 353 342 324 315 307 295 288 280 275 271 263 262 262 255 238 229 228 196
24 23 21 23 20 10 4 357 352 11 6 5 4 359 357 351 343 334 328 317 302 295 288 280 270 265 245 247 271 253 245 244
25 24 21 17 17 14 9 15 8 10 8 3 356 355 357 356 350 342 331 328 315 310 306 292 281 264 267 242 219 248 247 236
18 20 20 17 18 15 16 8 3 4 1 359 359 353 357 356 347 339 327 325 318 313 309 302 288 279 270 270 261 271 257 245
6 8 12 15 13 16 11 9 360 355 356 1 9 355 354 354 344 338 323 323 318 314 309 301 294 285 273 275 280 268 263 262
11 7 9 10 11 16 8 5 5 359 5 354 18 0 353 344 341 330 327 323 323 314 305 299 292 286 281 274 271 276 272 261
8 10 12 12 13 14 7 4 4 0 12 10 5 2 347 342 339 338 330 330 324 311 306 300 294 289 282 280 274 270 267 271
5 7 9 12 11 13 7 12 8 7 2 3 3 1 339 346 345 336 336 332 324 319 312 311 304 297 290 284 286 276 269 265